EW3333 Weather Reports


time (UTC)temp
C
wind
direction
speed
KPH
gust
KPH
rain 1hr
cm
rain 24hr
cm
rain mn
cm
humidity
%
barometer
mb
20210920050002 16 270 0.0 0.0 0.00 0.00 0.00 87 1008.6
20210920044502 16 270 0.0 0.0 0.00 0.00 0.00 87 1008.8
20210920043134 16 270 0.0 0.0 0.00 0.00 0.00 87 1008.7
20210920041608 16 270 0.0 0.0 0.00 0.00 0.00 86 1008.7
20210920040122 16 270 0.0 0.0 0.00 0.00 0.00 86 1008.6
20210920034630 16 270 0.0 0.0 0.00 0.00 0.00 86 1008.6
20210920033122 16 270 0.0 0.0 0.00 0.00 0.00 85 1008.4
20210920031654 16 270 0.0 0.0 0.00 0.00 0.00 85 1008.4
20210920030149 17 270 3.2 0.0 0.00 0.00 0.00 84 1008.4
20210920024624 17 271 6.4 0.0 0.00 0.00 0.00 83 1008.4
20210920023157 17 271 8.0 0.0 0.00 0.00 0.00 82 1008.2
20210920021600 17 279 8.0 0.0 0.00 0.00 0.00 80 1008.1
20210920020141 18 276 9.7 0.0 0.00 0.00 0.00 78 1008.0
20210920014700 19 281 9.7 0.0 0.00 0.00 0.00 74 1007.9
20210920013138 21 288 11.3 0.0 0.00 0.00 0.00 69 1007.7
20210920011611 22 287 9.7 0.0 0.00 0.00 0.00 63 1007.5
20210920010156 23 271 8.0 0.0 0.00 0.00 0.00 60 1007.5
20210920004707 23 269 8.0 0.0 0.00 0.00 0.00 58 1007.7
20210920003122 24 288 8.0 0.0 0.00 0.00 0.00 56 1007.6
20210920001626 24 290 8.0 0.0 0.00 0.00 0.00 57 1007.6
20210920000109 24 287 9.7 0.0 0.00 0.00 0.00 56 1007.6
20210919234557 24 277 9.7 0.0 0.00 0.00 0.00 56 1007.8
20210919233115 25 302 8.0 0.0 0.00 0.00 0.00 57 1007.9
20210919231609 24 283 11.3 0.0 0.00 0.00 0.00 57 1008.1
20210919230047 25 251 12.9 0.0 0.00 0.00 0.00 55 1008.2
20210919224631 25 277 9.7 0.0 0.00 0.00 0.00 54 1008.2
20210919223207 25 271 11.3 0.0 0.00 0.00 0.00 55 1008.4
20210919221711 26 292 12.9 0.0 0.00 0.00 0.00 53 1008.4
20210919220043 26 290 14.5 0.0 0.00 0.00 0.00 54 1008.5
20210919214552 26 297 12.9 0.0 0.00 0.00 0.00 53 1008.5
20210919213046 26 303 12.9 0.0 0.00 0.00 0.00 53 1008.7
20210919211606 26 296 11.3 0.0 0.00 0.00 0.00 48 1008.9
20210919210039 27 278 6.4 0.0 0.00 0.00 0.00 48 1009.0
20210919204604 26 292 4.8 0.0 0.00 0.00 0.00 53 1009.2
20210919203057 25 238 4.8 0.0 0.00 0.00 0.00 54 1009.5
20210919201546 25 269 8.0 0.0 0.00 0.00 0.00 54 1009.8
20210919200059 25 288 6.4 0.0 0.00 0.00 0.00 57 1010.1
20210919194616 25 234 4.8 0.0 0.00 0.00 0.00 58 1010.2
20210919193026 24 223 1.6 0.0 0.00 0.00 0.00 59 1010.2
20210919191518 23 232 0.0 0.0 0.00 0.00 0.00 61 1010.4
20210919190013 22 150 0.0 0.0 0.00 0.00 0.00 65 1010.6
20210919184522 22 288 8.0 0.0 0.00 0.00 0.00 66 1010.9
20210919183011 21 322 8.0 0.0 0.00 0.00 0.00 69 1011.1
20210919181523 21 294 8.0 0.0 0.00 0.00 0.00 71 1011.2
20210919180110 20 322 11.3 0.0 0.00 0.00 0.00 73 1011.4
20210919174744 20 300 8.0 0.0 0.00 0.00 0.00 73 1011.4
20210919173149 20 281 8.0 0.0 0.00 0.00 0.00 73 1011.5
20210919171655 20 210 0.0 0.0 0.00 0.00 0.00 74 1011.5
20210919170248 19 205 4.8 0.0 0.00 0.00 0.00 75 1011.4
20210919164625 18 321 0.0 0.0 0.00 0.00 0.00 77 1011.3
20210919163155 18 321 0.0 0.0 0.00 0.00 0.00 82 1011.2
20210919161603 16 310 0.0 0.0 0.00 0.00 0.00 87 1011.4
20210919160227 16 311 0.0 0.0 0.00 0.00 0.00 88 1011.5
20210919154624 16 311 0.0 0.0 0.00 0.00 0.00 89 1011.5
20210919153119 16 311 0.0 0.0 0.00 0.00 0.00 90 1011.5
20210919151614 15 311 0.0 0.0 0.00 0.00 0.00 91 1011.5
20210919150105 15 311 0.0 0.0 0.00 0.00 0.00 91 1011.4
20210919144552 15 311 0.0 0.0 0.00 0.00 0.00 91 1011.3
20210919143059 15 311 0.0 0.0 0.00 0.00 0.00 91 1011.3
20210919141725 15 311 0.0 0.0 0.00 0.00 0.00 91 1011.2
20210919140049 15 311 0.0 0.0 0.00 0.00 0.00 91 1011.2
20210919134552 15 311 0.0 0.0 0.00 0.00 0.00 91 1011.0
20210919133132 15 311 0.0 0.0 0.00 0.00 0.00 92 1010.8
20210919131539 15 311 0.0 0.0 0.00 0.00 0.00 92 1010.9
20210919130042 15 311 0.0 0.0 0.00 0.00 0.00 92 1010.7
20210919124545 15 311 0.0 0.0 0.00 0.00 0.00 92 1010.6
20210919123054 15 311 0.0 0.0 0.00 0.00 0.00 92 1010.5
20210919121535 15 311 0.0 0.0 0.00 0.00 0.00 92 1010.5
20210919120109 15 311 0.0 0.0 0.00 0.00 0.00 92 1010.4
20210919114556 15 311 0.0 0.0 0.00 0.00 0.00 92 1010.3
20210919113028 15 311 0.0 0.0 0.00 0.00 0.00 92 1010.4
20210919111543 15 311 0.0 0.0 0.00 0.00 0.00 92 1010.4
20210919110058 15 311 0.0 0.0 0.00 0.00 0.00 92 1010.4
20210919104538 15 311 0.0 0.0 0.00 0.00 0.00 92 1010.4
20210919103026 15 311 0.0 0.0 0.00 0.00 0.00 92 1010.5
20210919101618 15 311 0.0 0.0 0.00 0.00 0.00 92 1010.6
20210919100022 15 311 0.0 0.0 0.00 0.00 0.00 92 1010.6
20210919094539 15 311 0.0 0.0 0.00 0.00 0.00 92 1010.7
20210919093027 15 311 0.0 0.0 0.00 0.00 0.00 92 1010.8
20210919091526 15 311 0.0 0.0 0.00 0.00 0.00 92 1010.9
20210919090017 15 311 0.0 0.0 0.00 0.00 0.00 92 1010.9
20210919084530 15 311 0.0 0.0 0.00 0.00 0.00 93 1011.1
20210919083022 15 311 0.0 0.0 0.00 0.00 0.00 93 1011.3
20210919081517 15 311 0.0 0.0 0.00 0.00 0.00 93 1011.3
20210919080041 15 311 0.0 0.0 0.00 0.00 0.00 93 1011.4
20210919074532 15 311 0.0 0.0 0.00 0.00 0.00 92 1011.5
20210919073026 15 311 0.0 0.0 0.00 0.00 0.00 92 1011.7
20210919071512 15 311 0.0 0.0 0.00 0.00 0.00 92 1011.7
20210919070005 15 311 0.0 0.0 0.00 0.00 0.00 92 1011.7
20210919064505 15 311 0.0 0.0 0.00 0.00 0.00 92 1011.6
20210919063005 15 311 0.0 0.0 0.00 0.00 0.00 91 1011.7
20210919061536 15 311 0.0 0.0 0.00 0.00 0.00 92 1011.7
20210919060005 16 311 0.0 0.0 0.00 0.00 0.00 91 1011.8
20210919054532 16 311 1.6 0.0 0.00 0.00 0.00 91 1011.8
20210919053008 16 311 3.2 0.0 0.00 0.00 0.00 91 1011.9
20210919051504 16 311 4.8 0.0 0.00 0.00 0.00 91 1011.8